This is the latest recevied weather packets stored in our database for station/object DL1MMS-10. If no packets are shown the sender has not sent any weather packets the latest 10 day(s).
| Time | Temp. | Humidity | Pressure | Rain* | Wind** | Luminosity | Snow |
|---|---|---|---|---|---|---|---|
| 1777663073 | 13.89° C | 40% | 1024.6 hPa | 0 mm | - | - | - |
| 1777662772 | 13.89° C | 39% | 1024.6 hPa | 0 mm | - | - | - |
| 1777662472 | 13.89° C | 39% | 1024.5 hPa | 0 mm | - | - | - |
| 1777662172 | 14.44° C | 38% | 1024.5 hPa | 0 mm | - | - | - |
| 1777661871 | 14.44° C | 38% | 1024.6 hPa | 0 mm | - | - | - |
| 1777661571 | 14.44° C | 38% | 1024.4 hPa | 0 mm | - | - | - |
| 1777661271 | 15° C | 38% | 1024.5 hPa | 0 mm | - | - | - |
| 1777660971 | 15.56° C | 37% | 1024.6 hPa | 0 mm | - | - | - |
| 1777660670 | 15.56° C | 36% | 1024.6 hPa | 0 mm | - | - | - |
| 1777660370 | 16.11° C | 35% | 1024.6 hPa | 0 mm | - | - | - |
| 1777660070 | 16.67° C | 35% | 1024.5 hPa | 0 mm | - | - | - |
| 1777659769 | 16.67° C | 34% | 1024.3 hPa | 0 mm | - | - | - |
| 1777659469 | 17.22° C | 34% | 1024.4 hPa | 0 mm | - | - | - |
| 1777659169 | 17.22° C | 33% | 1024.3 hPa | 0 mm | - | - | - |
| 1777658869 | 17.78° C | 33% | 1024.2 hPa | 0 mm | - | - | - |
| 1777658568 | 17.78° C | 32% | 1024.2 hPa | 0 mm | - | - | - |
| 1777658268 | 18.33° C | 31% | 1024.2 hPa | 0 mm | - | - | - |
| 1777657968 | 18.89° C | 30% | 1024.2 hPa | 0 mm | - | - | - |
| 1777657668 | 18.89° C | 30% | 1024.1 hPa | 0 mm | - | - | - |
| 1777657367 | 19.44° C | 30% | 1024 hPa | 0 mm | - | - | - |
| 1777657067 | 20° C | 28% | 1024 hPa | 0 mm | - | - | - |
| 1777656767 | 20° C | 27% | 1024.1 hPa | 0 mm | - | - | - |
| 1777656466 | 20.56° C | 27% | 1024.2 hPa | 0 mm | - | - | - |
| 1777656166 | 21.11° C | 26% | 1024 hPa | 0 mm | - | - | - |
| 1777655866 | 21.11° C | 26% | 1023.9 hPa | 0 mm | - | - | - |
* Rain latest hour (hover to see other rain measurements)
** Current wind speed in m/s (hover to see current wind gust speed)